UPS28Y KSDF-KOMA

Flight info

Callsign UPS28Y
Flight time N/A
Altitude 38000
Route LLIZY1 DAAVE ENL STL LMN MARWI4
Aircraft B763/H-SDE3FGHIM3RWXY/LB1

Departure

Time 2026-04-29 17:35
Airport Louisville Muhammad Ali International Airport (KSDF)

Arrival

Time N/A
Airport Eppley Airfield (KOMA)
Time Latitude Longitude Altitude Speed Heading
2026-04-29 16:59 38.16551 -85.73646 470 ft 0 kts 20°
2026-04-29 17:25 38.16550 -85.73647 470 ft 1 kts 20°
2026-04-29 17:25 38.16536 -85.73654 470 ft 2 kts 20°
2026-04-29 17:25 38.16522 -85.73660 470 ft 2 kts 20°
2026-04-29 17:26 38.16513 -85.73665 470 ft 1 kts 20°
2026-04-29 17:26 38.16499 -85.73669 470 ft 2 kts 358°
2026-04-29 17:26 38.16486 -85.73666 470 ft 2 kts 337°
2026-04-29 17:26 38.16473 -85.73656 470 ft 2 kts 315°
2026-04-29 17:27 38.16466 -85.73643 470 ft 0 kts 294°
2026-04-29 17:27 38.16463 -85.73636 470 ft 0 kts 291°
2026-04-29 17:29 38.16465 -85.73640 470 ft 3 kts 291°
2026-04-29 17:29 38.16478 -85.73681 470 ft 6 kts 291°
2026-04-29 17:30 38.16493 -85.73731 470 ft 6 kts 292°
2026-04-29 17:30 38.16510 -85.73783 469 ft 6 kts 291°
2026-04-29 17:30 38.16520 -85.73835 469 ft 5 kts 265°
2026-04-29 17:30 38.16504 -85.73870 469 ft 4 kts 218°
2026-04-29 17:31 38.16473 -85.73879 469 ft 5 kts 176°
2026-04-29 17:31 38.16431 -85.73865 468 ft 7 kts 167°
2026-04-29 17:31 38.16373 -85.73849 468 ft 9 kts 167°
2026-04-29 17:31 38.16298 -85.73827 467 ft 12 kts 167°
2026-04-29 17:32 38.16209 -85.73798 466 ft 13 kts 165°
2026-04-29 17:32 38.16118 -85.73768 466 ft 13 kts 165°
2026-04-29 17:32 38.16027 -85.73738 466 ft 13 kts 165°
2026-04-29 17:32 38.15936 -85.73711 465 ft 13 kts 173°
2026-04-29 17:33 38.15866 -85.73754 465 ft 11 kts 246°
2026-04-29 17:33 38.15844 -85.73845 464 ft 10 kts 253°
2026-04-29 17:33 38.15860 -85.73920 464 ft 9 kts 312°
2026-04-29 17:33 38.15910 -85.73955 464 ft 7 kts 340°
2026-04-29 17:34 38.15959 -85.73975 464 ft 7 kts 346°
2026-04-29 17:34 38.16029 -85.73996 464 ft 24 kts 346°
2026-04-29 17:34 38.16362 -85.74108 467 ft 74 kts 345°
2026-04-29 17:34 38.17014 -85.74322 476 ft 118 kts 346°
2026-04-29 17:35 38.18654 -85.74859 681 ft 165 kts 344°
2026-04-29 17:35 38.20094 -85.75329 1457 ft 165 kts 338°
2026-04-29 17:35 38.21109 -85.75975 1911 ft 169 kts 327°
2026-04-29 17:36 38.22147 -85.76753 2216 ft 182 kts 328°
2026-04-29 17:36 38.23306 -85.77605 2461 ft 202 kts 328°
2026-04-29 17:36 38.24560 -85.78529 2851 ft 218 kts 328°
2026-04-29 17:36 38.25909 -85.79524 3253 ft 234 kts 328°
2026-04-29 17:37 38.27337 -85.80643 3754 ft 246 kts 317°
2026-04-29 17:37 38.28321 -85.82403 4359 ft 252 kts 287°
2026-04-29 17:37 38.28481 -85.84592 5174 ft 253 kts 268°
2026-04-29 17:37 38.28387 -85.86802 5957 ft 254 kts 269°
2026-04-29 17:38 38.28119 -85.88993 6697 ft 258 kts 251°
2026-04-29 17:38 38.27526 -85.91138 7442 ft 257 kts 259°
2026-04-29 17:38 38.27169 -85.93326 8258 ft 255 kts 258°
2026-04-29 17:38 38.26761 -85.95545 8908 ft 259 kts 257°
2026-04-29 17:39 38.26339 -85.97743 9662 ft 259 kts 257°
2026-04-29 17:39 38.25904 -85.99969 10334 ft 262 kts 257°
2026-04-29 17:39 38.25453 -86.02244 10697 ft 277 kts 257°
2026-04-29 17:39 38.24966 -86.04678 11021 ft 293 kts 258°
2026-04-29 17:40 38.24444 -86.07270 11348 ft 310 kts 258°
2026-04-29 17:40 38.23902 -86.09950 11676 ft 325 kts 258°
2026-04-29 17:40 38.23323 -86.12811 12025 ft 340 kts 258°
2026-04-29 17:40 38.22725 -86.15745 12728 ft 345 kts 259°
2026-04-29 17:41 38.22133 -86.18649 13581 ft 344 kts 259°
2026-04-29 17:41 38.21531 -86.21601 14223 ft 349 kts 259°
2026-04-29 17:41 38.20928 -86.24557 15001 ft 349 kts 259°
2026-04-29 17:41 38.20318 -86.27544 15616 ft 353 kts 259°
2026-04-29 17:42 38.19698 -86.30569 16378 ft 353 kts 259°
2026-04-29 17:42 38.19086 -86.33559 17048 ft 356 kts 259°
2026-04-29 17:42 38.18453 -86.36641 17766 ft 359 kts 258°
2026-04-29 17:42 38.17832 -86.39663 18493 ft 361 kts 258°
2026-04-29 17:43 38.17195 -86.42751 19195 ft 364 kts 259°
2026-04-29 17:43 38.16553 -86.45860 19936 ft 365 kts 259°
2026-04-29 17:43 38.15905 -86.49000 20609 ft 367 kts 259°
2026-04-29 17:43 38.15348 -86.52123 21194 ft 368 kts 265°
2026-04-29 17:44 38.15160 -86.55360 21952 ft 365 kts 269°
2026-04-29 17:44 38.14963 -86.58569 22455 ft 371 kts 268°
2026-04-29 17:44 38.14777 -86.61797 23193 ft 370 kts 268°
2026-04-29 17:44 38.14579 -86.65083 23738 ft 373 kts 268°
2026-04-29 17:45 38.14387 -86.68371 24404 ft 376 kts 267°
2026-04-29 17:45 38.14195 -86.71649 25206 ft 377 kts 267°
2026-04-29 17:45 38.14112 -86.74983 25825 ft 379 kts 274°
2026-04-29 17:45 38.14471 -86.78275 26532 ft 380 kts 279°
2026-04-29 17:46 38.14891 -86.81582 27174 ft 382 kts 278°
2026-04-29 17:46 38.15316 -86.84919 27839 ft 384 kts 278°
2026-04-29 17:46 38.15731 -86.88210 28495 ft 385 kts 278°
2026-04-29 17:46 38.16164 -86.91599 29033 ft 388 kts 278°
2026-04-29 17:47 38.16587 -86.94925 29785 ft 385 kts 277°
2026-04-29 17:47 38.17009 -86.98228 30645 ft 379 kts 277°
2026-04-29 17:47 38.17424 -87.01499 31341 ft 376 kts 277°
2026-04-29 17:47 38.17844 -87.04795 31929 ft 375 kts 278°
2026-04-29 17:48 38.18253 -87.08030 32429 ft 375 kts 278°
2026-04-29 17:48 38.18665 -87.11278 33082 ft 371 kts 277°
2026-04-29 17:48 38.19068 -87.14468 33674 ft 368 kts 278°
2026-04-29 17:48 38.19472 -87.17673 34119 ft 368 kts 278°
2026-04-29 17:49 38.19878 -87.20894 34500 ft 368 kts 278°
2026-04-29 17:49 38.20274 -87.24054 34820 ft 368 kts 278°
2026-04-29 17:49 38.20676 -87.27265 35122 ft 368 kts 278°
2026-04-29 17:49 38.21077 -87.30461 35454 ft 368 kts 278°
2026-04-29 17:50 38.21477 -87.33675 35735 ft 368 kts 278°
2026-04-29 17:50 38.21874 -87.36858 35956 ft 366 kts 278°
2026-04-29 17:50 38.22271 -87.40054 35959 ft 363 kts 278°
2026-04-29 17:51 38.23056 -87.46396 35981 ft 365 kts 278°
2026-04-29 17:51 38.23842 -87.52778 35983 ft 367 kts 279°
2026-04-29 17:52 38.24625 -87.59160 35981 ft 365 kts 278°
2026-04-29 17:52 38.25400 -87.65506 35992 ft 365 kts 278°
2026-04-29 17:53 38.26176 -87.71885 35994 ft 367 kts 278°
2026-04-29 17:53 38.26943 -87.78230 36004 ft 366 kts 278°
2026-04-29 17:54 38.27714 -87.84631 35997 ft 364 kts 278°
2026-04-29 17:54 38.28474 -87.90976 36003 ft 366 kts 278°
2026-04-29 17:55 38.29237 -87.97372 36003 ft 365 kts 278°
2026-04-29 17:55 38.29990 -88.03706 36001 ft 365 kts 278°
2026-04-29 17:56 38.30745 -88.10095 35992 ft 365 kts 278°
2026-04-29 17:56 38.31491 -88.16436 35989 ft 365 kts 277°
2026-04-29 17:57 38.32239 -88.22826 36010 ft 365 kts 278°
2026-04-29 17:57 38.32979 -88.29190 36013 ft 364 kts 278°
2026-04-29 17:58 38.33716 -88.35548 36007 ft 364 kts 277°
2026-04-29 17:58 38.34453 -88.41937 36018 ft 365 kts 278°
2026-04-29 17:59 38.35183 -88.48292 36022 ft 363 kts 278°
2026-04-29 17:59 38.35907 -88.54633 36021 ft 365 kts 277°